{"data":{"norad_id":53610,"epoch":"2026-05-24T16:04:09.859584Z","epoch_age_seconds":96813,"freshness":"FRESH","line1":"1 53610U 22104Y   26144.66955856  .00000381  00000+0  42016-4 0  9999","line2":"2 53610  53.2145 253.1564 0001038  95.5647 264.5463 15.08834332207108","mean_motion":15.08834332,"eccentricity":0.0001038,"inclination_deg":53.2145,"raan_deg":253.1564,"arg_perigee_deg":95.5647,"mean_anomaly_deg":264.5463,"bstar":4.2016e-5,"rev_number":20710,"period_min":95.437913192977,"perigee_km":539.04263604413,"apogee_km":540.47879160952,"semimajor_km":6917.8977138268,"source":"CELESTRAK","updated_at":"2026-05-25T13:38:17.477909Z"}}